Location: Newark
(43.0000°N, 1.6781°W)
Time: 06:00:04
(UTC+00:00)

N. Korean satellite - Pass Details

Date: 03 December 2021
Orbit: 447 x 491 km, 97.3° (Epoch: 25 January)

Event Time Altitude Azimuth Distance (km) Brightness Sun altitude
Rises 17:26:44 0° 203° (SSW) 2,535 10.9 -9.8°
Reaches altitude 10° 17:29:22 10° 225° (SW) 1,652 10.4 -10.2°
Maximum altitude 17:31:44 17° 267° (W) 1,281 9.8 -10.6°
Drops below altitude 10° 17:34:06 10° 309° (NW) 1,643 9.7 -11.0°
Sets 17:36:43 0° 330° (NNW) 2,515 10.3 -11.5°
